Location: Astronomy Club of Akron Observatory
(40.9700°N, 81.5606°W)
Time: 00:15:22
(UTC-04:00)

ISS - Pass Details

Date: 17 July 2018
Orbit: 402 x 408 km, 51.6° (Epoch: 21 July)

Event Time Altitude Azimuth Distance (km) Brightness Sun altitude
Rises 03:25:08 0° 306° (NW) 2,330 0.1 -22.6°
Reaches altitude 10° 03:28:03 10° 334° (NNW) 1,471 -0.6 -22.3°
Maximum altitude 03:29:48 14° 6° (N) 1,276 -0.5 -22.1°
Drops below altitude 10° 03:31:33 10° 38° (NE) 1,471 0.1 -22.0°
Sets 03:34:28 0° 67° (ENE) 2,332 0.9 -21.7°
